Flag for Albania Weather past 2 weeks in Tirana, Albania

Now
64 °F

Scattered clouds.


Feels Like: 64 °F
Forecast: 42 / 63 °F
Wind: 16 mph from Northeast

Location: Tirana Airport

Current Time: Oct 25, 2014 at 3:06:09 PM

Latest Report: Oct 25, 2014 at 2:20 PM


Visibility: N/A

Pressure: 29.89 "Hg

Humidity: 37%

Dew point: 37 °F

Location of TiranaLocation

Historic Weather in Tirana — Graph

°F

Tirana temperature yesterday

Maximum temperature yesterday: 59 °F (at 12:20 PM)
Minimum temperature yesterday: 46 °F (at 1:20 AM)
Average temperature yesterday: 52 °F

Past Weeks' High & Low Weather Summary

 TemperatureHumidityPressure
High82 °F (Oct 10, 2:50 PM)94% (Oct 10, 8:20 PM)30.27 "Hg (Oct 10, 8:20 PM)
Low45 °F (Oct 23, 10:50 PM)24% (Oct 19, 1:20 PM)29.53 "Hg (Oct 22, 3:20 PM)
Average64 °F75%29.98 "Hg
* Reported Oct 10 1:20 PM — Oct 25 1:50 PM, Tirana, Weather by CustomWeather, © 2014

Note: Actual official high and low records may vary slightly from our data, if they occured in-between our weather recording intervals... More about our weather records

Advertising

Tirana weather history for previous 24 hours

 ConditionsComfort  
Time TempWeatherWind HumidityBarometerVisibility
1:50 PM
Oct 25
64 °FScattered clouds.16 mph37%29.89 "HgN/A
1:20 PM64 °FScattered clouds.5 mph37%29.89 "HgN/A
12:50 PM64 °FPassing clouds.5 mph37%29.89 "HgN/A
12:20 PM63 °FPassing clouds.6 mph42%29.92 "HgN/A
11:50 AM59 °FScattered clouds.7 mph51%29.92 "HgN/A
11:20 AM57 °FPartly sunny.6 mph59%29.92 "HgN/A
10:50 AM57 °FBroken clouds.5 mph63%29.89 "HgN/A
10:20 AM55 °FBroken clouds.6 mph63%29.89 "HgN/A
9:50 AM54 °FBroken clouds.2 mph72%29.89 "HgN/A
9:20 AM54 °FBroken clouds.2 mph72%29.89 "HgN/A
8:50 AM52 °FBroken clouds.No wind77%29.89 "HgN/A
8:20 AM50 °FBroken clouds.6 mph82%29.86 "HgN/A
7:50 AM50 °FPassing clouds.5 mph82%29.86 "HgN/A
7:20 AM48 °FPassing clouds.5 mph87%29.86 "HgN/A
6:50 AM46 °FPassing clouds.No wind93%29.86 "HgN/A
6:20 AM46 °FPassing clouds.No wind93%29.86 "HgN/A
5:50 AM46 °FPassing clouds.No wind87%29.83 "HgN/A
5:20 AM46 °FPassing clouds.2 mph87%29.83 "HgN/A
4:50 AM46 °FPassing clouds.2 mph87%29.83 "HgN/A
4:20 AM48 °FClear.3 mph76%29.80 "Hg10 mi
3:50 AM46 °FClear.2 mph82%29.80 "Hg10 mi
3:20 AM50 °FClear.2 mph71%29.80 "Hg10 mi
2:50 AM48 °FClear.No wind76%29.80 "Hg10 mi
2:20 AM50 °FPassing clouds.2 mph67%29.80 "HgN/A
1:50 AM54 °FPassing clouds.8 mph58%29.77 "HgN/A
1:20 AM55 °FPassing clouds.8 mph55%29.77 "HgN/A
12:50 AM55 °FPassing clouds.6 mph55%29.77 "HgN/A
12:20 AM55 °FPassing clouds.9 mph55%29.80 "HgN/A
11:50 PM
Oct 24
55 °FPartly cloudy.9 mph55%29.80 "HgN/A
11:20 PM55 °FPartly cloudy.12 mph55%29.80 "HgN/A
10:50 PM54 °FPartly cloudy.13 mph63%29.80 "HgN/A
10:20 PM54 °FPartly cloudy.10 mph63%29.80 "HgN/A
9:50 PM54 °FLight rain. Partly cloudy.8 mph67%29.80 "HgN/A
9:20 PM54 °FLight rain. Partly cloudy.9 mph67%29.80 "HgN/A
8:50 PM54 °FLight rain. Partly cloudy.8 mph67%29.80 "HgN/A
8:20 PM54 °FLight rain. Partly cloudy.6 mph63%29.77 "HgN/A
7:50 PM54 °FLight rain. Partly cloudy.3 mph63%29.77 "HgN/A
7:20 PM55 °FPartly cloudy.8 mph55%29.74 "HgN/A
6:50 PM54 °FPartly cloudy.6 mph63%29.74 "HgN/A
6:20 PM54 °FBroken clouds.6 mph67%29.74 "HgN/A
5:50 PM55 °FPartly sunny.5 mph63%29.74 "HgN/A
5:20 PM57 °FLight rain. Broken clouds.No wind59%29.71 "HgN/A
4:50 PM57 °FBroken clouds.3 mph59%29.71 "HgN/A
4:20 PM59 °FBroken clouds.3 mph59%29.71 "HgN/A
3:50 PM59 °FLight rain. Broken clouds.2 mph55%29.71 "HgN/A
3:20 PM59 °FLight rain. Broken clouds.2 mph55%29.71 "HgN/A
Weather by CustomWeather, © 2014

See weather overviewHow to use our weather pages